When you browse on this site, cookies collect data to enhance your experience and personalize the content and advertising you see.
Visit our Privacy Policy to learn more. By continuing to use the site, you agree to this use of cookies and data.
  • în România
  • Lista ţărilor
  • Pe 7 zile
  • Temperatura apei
  • Meteo pe hartă
  • Widget-uri
  • user-avatar
    Intrare

    Meteo pe oră la Melbourne

    Astăzi, 1 Iunie, Luni

    Timp Temperatura Precipitaţii Vânt Presiune Umiditate
    00:00 +10°C° 0 mm 5 m/s 753 mmHg 70%
    01:00 +10°C° 0 mm 6 m/s 752 mmHg 70%
    02:00 +10°C° 0.1 mm 6 m/s 752 mmHg 71%
    03:00 +10°C° 0.1 mm 7 m/s 751 mmHg 72%
    04:00 +10°C° 0 mm 7 m/s 750 mmHg 74%
    05:00 +10°C° 0.5 mm 7 m/s 750 mmHg 76%
    06:00 +10°C° 0.5 mm 6 m/s 750 mmHg 79%
    07:00 +10°C° 0.5 mm 5 m/s 750 mmHg 81%
    08:00 +9°C° 1 mm 6 m/s 751 mmHg 81%
    09:00 +9°C° 1 mm 6 m/s 751 mmHg 81%
    10:00 +9°C° 0 mm 5 m/s 752 mmHg 82%
    11:00 +9°C° 0.3 mm 6 m/s 752 mmHg 82%
    12:00 +9°C° 0.3 mm 6 m/s 752 mmHg 81%
    13:00 +9°C° 0.3 mm 6 m/s 753 mmHg 80%
    14:00 +9°C° 1.6 mm 7 m/s 753 mmHg 82%
    15:00 +9°C° 1.6 mm 8 m/s 754 mmHg 84%
    16:00 +8°C° 0 mm 9 m/s 755 mmHg 86%
    17:00 +8°C° 0.4 mm 9 m/s 756 mmHg 83%
    18:00 +7°C° 0.4 mm 8 m/s 757 mmHg 81%
    19:00 +8°C° 0.4 mm 7 m/s 758 mmHg 78%
    20:00 +8°C° 0 mm 7 m/s 759 mmHg 77%
    21:00 +8°C° 0 mm 6 m/s 759 mmHg 76%
    22:00 +8°C° 0 mm 5 m/s 760 mmHg 75%
    23:00 +8°C° 0 mm 5 m/s 760 mmHg 76%

    Mâine, 2 Iunie, Marţi

    Timp Temperatura Precipitaţii Vânt Presiune Umiditate
    00:00 +7°C° 0 mm 4 m/s 760 mmHg 77%
    01:00 +7°C° 0 mm 4 m/s 761 mmHg 77%
    02:00 +8°C° 0 mm 3 m/s 761 mmHg 78%
    03:00 +8°C° 0 mm 3 m/s 761 mmHg 78%
    04:00 +8°C° 0 mm 3 m/s 761 mmHg 78%
    05:00 +8°C° 0 mm 2 m/s 761 mmHg 81%
    06:00 +8°C° 0 mm 2 m/s 762 mmHg 83%
    07:00 +8°C° 0 mm 2 m/s 762 mmHg 85%
    08:00 +9°C° 0 mm 2 m/s 762 mmHg 83%
    09:00 +10°C° 0 mm 2 m/s 762 mmHg 81%
    10:00 +12°C° 0 mm 2 m/s 763 mmHg 80%
    11:00 +12°C° 0 mm 3 m/s 762 mmHg 77%
    12:00 +13°C° 0 mm 4 m/s 762 mmHg 74%
    13:00 +14°C° 0 mm 4 m/s 762 mmHg 71%
    14:00 +14°C° 0.1 mm 4 m/s 762 mmHg 71%
    15:00 +14°C° 0.1 mm 4 m/s 762 mmHg 71%
    16:00 +14°C° 0.1 mm 4 m/s 762 mmHg 71%
    17:00 +13°C° 0 mm 4 m/s 762 mmHg 74%
    18:00 +12°C° 0 mm 4 m/s 763 mmHg 76%
    19:00 +12°C° 0 mm 3 m/s 763 mmHg 78%
    20:00 +12°C° 0 mm 4 m/s 763 mmHg 78%
    21:00 +12°C° 0 mm 4 m/s 764 mmHg 78%
    22:00 +12°C° 0 mm 4 m/s 764 mmHg 77%
    23:00 +12°C° 0.1 mm 5 m/s 764 mmHg 78%

    Poimâine, 3 Iunie, Miercuri

    Timp Temperatura Precipitaţii Vânt Presiune Umiditate
    00:00 +12°C° 0.1 mm 5 m/s 764 mmHg 78%
    01:00 +11°C° 0.1 mm 6 m/s 764 mmHg 78%
    02:00 +11°C° 0.1 mm 6 m/s 765 mmHg 78%
    03:00 +10°C° 0.1 mm 6 m/s 765 mmHg 77%
    04:00 +10°C° 0.1 mm 6 m/s 766 mmHg 76%
    05:00 +10°C° 0.1 mm 6 m/s 766 mmHg 75%
    06:00 +10°C° 0.1 mm 5 m/s 767 mmHg 74%
    07:00 +9°C° 0.1 mm 5 m/s 768 mmHg 73%
    08:00 +10°C° 0 mm 5 m/s 769 mmHg 70%
    09:00 +10°C° 0 mm 5 m/s 769 mmHg 67%
    10:00 +10°C° 0 mm 5 m/s 770 mmHg 63%
    11:00 +10°C° 0 mm 5 m/s 770 mmHg 62%
    12:00 +12°C° 0 mm 5 m/s 770 mmHg 61%
    13:00 +12°C° 0 mm 5 m/s 770 mmHg 60%
    14:00 +12°C° 0 mm 5 m/s 770 mmHg 61%
    15:00 +12°C° 0 mm 5 m/s 770 mmHg 62%
    16:00 +10°C° 0 mm 5 m/s 771 mmHg 63%
    17:00 +11°C° 0 mm 4 m/s 771 mmHg 65%
    18:00 +10°C° 0 mm 4 m/s 771 mmHg 67%
    19:00 +10°C° 0 mm 3 m/s 772 mmHg 69%
    20:00 +10°C° 0 mm 3 m/s 772 mmHg 70%
    21:00 +9°C° 0 mm 3 m/s 773 mmHg 71%
    22:00 +9°C° 0 mm 3 m/s 773 mmHg 73%
    23:00 +9°C° 0 mm 2 m/s 773 mmHg 74%

    4 Iunie, Joi

    Timp Temperatura Precipitaţii Vânt Presiune Umiditate
    00:00 +8°C° 0 mm 2 m/s 773 mmHg 76%
    01:00 +9°C° 0 mm 1 m/s 773 mmHg 78%
    02:00 +9°C° 0 mm 1 m/s 773 mmHg 80%
    03:00 +8°C° 0 mm 1 m/s 773 mmHg 82%
    04:00 +8°C° 0 mm 1 m/s 773 mmHg 84%
    05:00 +8°C° 0 mm 1 m/s 773 mmHg 85%
    06:00 +7°C° 0 mm 1 m/s 774 mmHg 85%
    07:00 +7°C° 0 mm 1 m/s 774 mmHg 86%
    08:00 +8°C° 0 mm 1 m/s 774 mmHg 81%
    09:00 +10°C° 0 mm 1 m/s 774 mmHg 76%
    10:00 +11°C° 0 mm 1 m/s 774 mmHg 70%
    11:00 +12°C° 0 mm 1 m/s 774 mmHg 63%
    12:00 +13°C° 0 mm 0 m/s 773 mmHg 57%
    13:00 +14°C° 0 mm 0 m/s 773 mmHg 50%
    14:00 +15°C° 0 mm 1 m/s 773 mmHg 52%
    15:00 +14°C° 0 mm 1 m/s 772 mmHg 53%
    16:00 +14°C° 0 mm 1 m/s 772 mmHg 54%
    17:00 +13°C° 0 mm 1 m/s 772 mmHg 60%
    18:00 +11°C° 0 mm 1 m/s 773 mmHg 66%
    19:00 +9°C° 0 mm 0 m/s 773 mmHg 72%
    20:00 +9°C° 0 mm 1 m/s 773 mmHg 74%
    21:00 +9°C° 0 mm 1 m/s 773 mmHg 75%
    22:00 +9°C° 0 mm 1 m/s 773 mmHg 77%
    23:00 +8°C° 0 mm 1 m/s 773 mmHg 78%

    5 Iunie, Vineri

    Timp Temperatura Precipitaţii Vânt Presiune Umiditate
    00:00 +8°C° 0 mm 1 m/s 772 mmHg 78%
    01:00 +7°C° 0 mm 2 m/s 772 mmHg 78%
    02:00 +7°C° 0 mm 2 m/s 772 mmHg 78%
    03:00 +6°C° 0 mm 2 m/s 771 mmHg 79%
    04:00 +6°C° 0 mm 2 m/s 771 mmHg 79%
    05:00 +6°C° 0 mm 2 m/s 771 mmHg 79%
    06:00 +7°C° 0 mm 1 m/s 772 mmHg 79%
    07:00 +7°C° 0 mm 1 m/s 772 mmHg 79%
    08:00 +8°C° 0 mm 1 m/s 772 mmHg 74%
    09:00 +8°C° 0 mm 2 m/s 772 mmHg 69%
    10:00 +9°C° 0 mm 2 m/s 772 mmHg 64%
    11:00 +12°C° 0 mm 1 m/s 771 mmHg 59%
    12:00 +13°C° 0 mm 1 m/s 770 mmHg 54%
    13:00 +15°C° 0 mm 1 m/s 770 mmHg 50%
    14:00 +15°C° 0 mm 1 m/s 770 mmHg 52%
    15:00 +14°C° 0 mm 1 m/s 769 mmHg 54%
    16:00 +14°C° 0 mm 1 m/s 769 mmHg 56%
    17:00 +13°C° 0 mm 1 m/s 769 mmHg 62%
    18:00 +11°C° 0 mm 1 m/s 769 mmHg 67%
    19:00 +9°C° 0 mm 0 m/s 770 mmHg 73%
    20:00 +9°C° 0 mm 1 m/s 770 mmHg 75%
    21:00 +9°C° 0 mm 1 m/s 769 mmHg 78%
    22:00 +9°C° 0 mm 1 m/s 769 mmHg 80%
    23:00 +8°C° 0 mm 1 m/s 769 mmHg 81%

    6 Iunie, Sâmbătă

    Timp Temperatura Precipitaţii Vânt Presiune Umiditate
    00:00 +8°C° 0 mm 1 m/s 769 mmHg 82%
    01:00 +8°C° 0 mm 1 m/s 769 mmHg 83%
    02:00 +8°C° 0 mm 1 m/s 768 mmHg 84%
    03:00 +7°C° 0 mm 2 m/s 768 mmHg 84%
    04:00 +6°C° 0 mm 2 m/s 768 mmHg 84%
    05:00 +6°C° 0 mm 2 m/s 768 mmHg 85%
    06:00 +6°C° 0 mm 2 m/s 768 mmHg 85%
    07:00 +6°C° 0 mm 2 m/s 768 mmHg 85%
    08:00 +7°C° 0 mm 2 m/s 768 mmHg 80%
    09:00 +9°C° 0 mm 1 m/s 768 mmHg 76%
    10:00 +11°C° 0 mm 1 m/s 768 mmHg 71%
    11:00 +11°C° 0 mm 1 m/s 767 mmHg 67%
    12:00 +12°C° 0 mm 1 m/s 767 mmHg 63%
    13:00 +13°C° 0 mm 1 m/s 767 mmHg 60%
    14:00 +12°C° 0.1 mm 1 m/s 766 mmHg 64%
    15:00 +12°C° 0.1 mm 2 m/s 766 mmHg 68%
    16:00 +10°C° 0.1 mm 2 m/s 766 mmHg 73%
    17:00 +10°C° 0.1 mm 2 m/s 766 mmHg 76%
    18:00 +11°C° 0.1 mm 1 m/s 767 mmHg 79%
    19:00 +10°C° 0.1 mm 1 m/s 767 mmHg 82%
    20:00 +10°C° 0 mm 1 m/s 767 mmHg 82%
    21:00 +10°C° 0 mm 1 m/s 767 mmHg 82%
    22:00 +9°C° 0 mm 2 m/s 767 mmHg 83%
    23:00 +9°C° 0 mm 2 m/s 767 mmHg 84%
    Arată mai mult